Starlink 6237

operational
NORAD ID: 57055 Int'l Des: 2023-088 Owner: SPXS Country: US Constellation: starlink
LEOCIRCULAR

About Starlink 6237

Description loading...

Live Position

Loading 3D Globe...

Upcoming Passes

Altitude History

Altitude vs Time

uPlot chart will show altitude changes over time

Two-Line Element Set

1 57055U 23088H 25354.22033148 .00000148 00000-0 26014-4 0 9995
2 57055 43.0019 179.4488 0001080 269.2077 90.8641 15.02533855138416
Epoch: Dec 20, 2025 • Age: 8 hours

Current Status

Altitude 562.1 km
Velocity 7.59 km/s
Sub-Earth Point 39.21°N, 54.82°W
Launch Date Jun 22, 2023
Age 2.4 years
Type internet

Technical Details

Classification Payload
Mass 305.00 kg
Dry Mass 290.00 kg
Total Mass 305.00 kg
Length 0.20 m
Diameter 2.80 m
Span 9.00 m
Shape Box + pan
Manufacturer SPXS
Bus Type Starlink
Phase Status In Orbit
Owner/State SPXS/US

Large Constellations

Loading constellations...